Location: Newark
(38.2000°N, 48.6000°E)
Time: 18:11:10
(UTC+00:00)

ISS - Visible Passes

Search period start: 16 July 2019 00:00
Search period end: 26 July 2019 00:00
Orbit: 409 x 418 km, 51.6° (Epoch: 17 July)

Date Brightness Start Highest point End Pass type
(mag) Time Alt. Az. Time Alt. Az. Time Alt. Az.
16 Jul -3.9 17:57:26 10° SW 18:00:46 88° NW 18:04:07 10° NE visible
16 Jul -0.6 19:35:44 10° WNW 19:37:52 16° NNW 19:39:59 10° NNE visible
16 Jul -0.4 22:51:57 10° NNW 22:53:38 13° NNE 22:55:20 10° NE visible
17 Jul -3.2 00:27:36 10° NW 00:30:52 61° NE 00:34:08 10° ESE visible
17 Jul -3.6 17:08:20 10° SSW 17:11:33 47° SE 17:14:46 10° ENE visible
17 Jul -1.1 18:45:43 10° W 18:48:24 22° NNW 18:51:04 10° NNE visible
17 Jul -0.1 22:03:21 10° N 22:04:04 11° NNE 22:04:48 10° NNE visible
17 Jul -2.1 23:38:28 10° NW 23:41:33 35° NNE 23:44:37 10° E visible
18 Jul -1.9 17:55:54 10° W 17:58:58 33° NNW 18:02:02 10° NE visible
18 Jul -0.1 19:35:55 10° NNW 19:36:28 10° NNW 19:37:01 10° N visible
18 Jul -1.2 22:49:24 10° NNW 22:52:08 23° NNE 22:54:50 10° E visible
19 Jul -3.5 00:25:46 10° WNW 00:28:55 42° SW 00:32:04 10° SSE visible
19 Jul -3.0 17:06:19 10° WSW 17:09:36 56° NW 17:12:54 10° NE visible
19 Jul -0.4 18:45:15 10° NW 18:46:52 13° NNW 18:48:29 10° N visible
19 Jul -0.7 22:00:26 10° NNW 22:02:39 16° NNE 22:04:50 10° ENE visible
19 Jul -4.0 23:36:22 10° NW 23:39:41 84° SW 23:42:59 10° SE visible
20 Jul -0.7 17:55:01 10° WNW 17:57:19 17° NNW 17:59:36 10° NNE visible
20 Jul -0.3 21:11:34 10° N 21:12:34 12° N 21:12:34 12° N visible
21 Jul -1.2 17:05:01 10° W 17:07:48 24° NNW 17:10:36 10° NNE visible
21 Jul -0.3 20:23:19 10° N 20:23:27 10° NNE 20:23:35 10° NNE visible
22 Jul -0.4 17:54:50 10° NNW 17:55:48 11° NNW 17:56:44 10° N visible
23 Jul -0.6 17:04:20 10° NW 17:06:10 14° NNW 17:08:00 10° NNE visible
23 Jul -0.3 20:19:54 10° NNW 20:20:19 12° N 20:20:19 12° N visible
24 Jul -0.6 19:31:03 10° N 19:32:19 12° NNE 19:32:21 12° NNE visible
